{"data":{"norad_id":49426,"intl_designator":"2021-104U","name":"STARLINK-3114","alt_names":[],"object_type":"PAYLOAD","status":"ACTIVE","operator":null,"country":"US","launch_date":"2021-11-13","launch_site_code":"AFETR","launch_vehicle":null,"mission":null,"orbit_class":"UNKNOWN","rcs_meters":null,"size_class":null,"mass_kg":null,"dimensions":null,"purposes":["comms"],"wikipedia_slug":null,"has_3d_model":false,"image_url":null,"decayed_at":null,"tle_current":{"epoch":"2026-05-24T23:47:06.620640Z","epoch_age_seconds":72516,"freshness":"FRESH","line1":"1 49426U 21104U   26144.99104885  .00000366  00000+0  41069-4 0  9992","line2":"2 49426  53.2148 246.5902 0001152  86.8016 273.3108 15.08837658250143","mean_motion":15.08837658,"eccentricity":0.0001152,"inclination_deg":53.2148,"raan_deg":246.5902,"arg_perigee_deg":86.8016,"mean_anomaly_deg":273.3108,"bstar":4.1069e-5,"rev_number":25014,"period_min":95.437702814811,"perigee_km":538.95360688496,"apogee_km":540.54748817591,"semimajor_km":6917.8875475304,"source":"CELESTRAK","updated_at":"2026-05-25T13:38:16.798190Z"}}}